Overview Statistics Trail Chart Weather Telemetry Raw packets
 

This is the latest recevied weather packets stored in our database for station/object N4UUJ-1. If no packets are shown the sender has not sent any weather packets the latest 10 day(s).

<< 1 2 3 4 5 6 >>
Time Temp. Humidity Pressure Rain* Wind** Luminosity Snow
1788533752 30° C 75% 1021.7 hPa 0 mm - - -
1788531939 29.44° C 75% 1021.5 hPa 0 mm - - -
1788530138 28.33° C 75% 1021.3 hPa 0 mm - - -
1788528337 26.11° C 75% 1021.1 hPa 0 mm - - -
1788526536 23.33° C 75% 1021.1 hPa 0 mm - - -
1788524735 20.56° C 75% 1020.8 hPa 0 mm - - -
1788522934 20.56° C 75% 1020.8 hPa 0 mm - - -
1788521133 20.56° C 75% 1020.7 hPa 0 mm - - -
1788519332 20.56° C 75% 1020.5 hPa 0 mm - - -
1788517531 20.56° C 75% 1020.3 hPa 0 mm - - -
1788515730 20.56° C 75% 1020.1 hPa 0 mm - - -
1788513929 20° C 75% 1020 hPa 0 mm - - -
1788512128 20.56° C 75% 1019.9 hPa 0 mm - - -
1788510327 20.56° C 75% 1019.9 hPa 0 mm - - -
1788508526 20.56° C 75% 1019.7 hPa 0 mm - - -
1788506725 20.56° C 75% 1019.9 hPa 0 mm - - -
1788504924 20.56° C 75% 1020 hPa 0 mm - - -
1788503123 21.11° C 75% 1020.1 hPa 0 mm - - -
1788501322 21.11° C 75% 1020.2 hPa 0 mm - - -
1788499521 21.67° C 75% 1020.4 hPa 0 mm - - -
1788497720 21.67° C 75% 1020.5 hPa 0 mm - - -
1788495919 22.22° C 75% 1020.6 hPa 0 mm - - -
1788494118 22.22° C 75% 1020.8 hPa 0 mm - - -
1788492317 22.22° C 75% 1021 hPa 0 mm - - -
1788490516 22.78° C 75% 1021.2 hPa 0 mm - - -

* Rain latest hour (hover to see other rain measurements)
** Current wind speed in m/s (hover to see current wind gust speed)